Location: La Comballaz
(46.3780°N, 7.0817°E)
Time: 04:37:22
(UTC+00:00)

Envisat - Pass Details

Date: 15 December 2021
Orbit: 764 x 766 km, 98.2° (Epoch: 16 January)

Event Time Altitude Azimuth Distance (km) Brightness Sun altitude
Rises 05:21:19 0° 7° (N) 3,243 6.2 -17.5°
Reaches altitude 10° 05:23:45 10° 360° (N) 2,313 5.3 -17.1°
Maximum altitude 05:28:28 40° 292° (WNW) 1,128 3.4 -16.3°
Drops below altitude 10° 05:33:09 10° 225° (SW) 2,297 5.2 -15.6°
Sets 05:35:33 0° 217° (SW) 3,218 6.0 -15.2°
